Weather reports worldwide

Advertisment
Goudhurst, United Kingdom (99126): temperature & dewpoint: 13.07.2018 12:00:00 - 19.07.2018 12:00:00 (BST)Goudhurst, United Kingdom (99126): precipitation: 13.07.2018 12:00:00 - 19.07.2018 12:00:00 (BST)
Date & Time tt [°C] td [°C] rr [mm]
19.07.2018 12:00:00 24,4 9,2 0,0
19.07.2018 11:00:00 23,1 11,5 0,0
19.07.2018 10:00:00 21,0 12,7 0,0
19.07.2018 09:00:00 18,5 14,4 0,0
19.07.2018 08:00:00 13,9 13,7 0,0
19.07.2018 07:00:00 12,6 12,4 0,0
19.07.2018 06:00:00 10,1 9,8 0,0
19.07.2018 05:00:00 10,4 10,1 0,0
19.07.2018 04:00:00 10,3 9,9 0,0
19.07.2018 03:00:00 11,1 10,6 0,0
19.07.2018 02:00:00 10,8 10,0 0,0
19.07.2018 01:00:00 11,1 10,1 0,0
19.07.2018 00:00:00 11,4 9,9 0,0
18.07.2018 23:00:00 12,3 10,0 0,0
18.07.2018 22:00:00 14,2 10,5 0,0
18.07.2018 21:00:00 16,7 10,6 0,0
18.07.2018 20:00:00 20,5 10,6 0,0
18.07.2018 19:00:00 22,1 11,2 0,0
18.07.2018 18:00:00 22,6 11,3 0,0
18.07.2018 17:00:00 23,4 10,9 0,0
18.07.2018 16:00:00 23,1 10,9 0,0
18.07.2018 15:00:00 23,2 11,7 0,0
18.07.2018 14:00:00 20,8 11,8 0,0
18.07.2018 13:00:00 22,7 10,9 0,0
18.07.2018 12:00:00 21,1 10,4 0,0
18.07.2018 11:00:00 19,9 11,7 0,0
18.07.2018 10:00:00 19,4 12,7 0,0
18.07.2018 09:00:00 18,8 12,9 0,0
18.07.2018 08:00:00 15,0 14,1 0,0
18.07.2018 07:00:00 13,6 13,4 0,0
18.07.2018 06:00:00 11,3 10,8 0,0
18.07.2018 05:00:00 12,0 11,4 0,0
18.07.2018 04:00:00 12,4 11,0 0,0
18.07.2018 03:00:00 13,0 11,4 0,0
18.07.2018 02:00:00 13,2 11,5 0,0
18.07.2018 01:00:00 13,3 11,2 0,0
18.07.2018 00:00:00 13,8 11,8 0,0
17.07.2018 23:00:00 14,5 12,3 0,0
17.07.2018 22:00:00 15,8 12,6 0,0
17.07.2018 21:00:00 17,1 12,0 0,0
17.07.2018 20:00:00 18,9 11,5 0,0
17.07.2018 19:00:00 20,6 10,4 0,0
17.07.2018 18:00:00 21,1 11,2 0,0
17.07.2018 17:00:00 21,2 11,3 0,0
17.07.2018 16:00:00 20,6 11,6 0,0
17.07.2018 15:00:00 21,5 12,9 0,0
17.07.2018 14:00:00 20,3 12,5 0,0
17.07.2018 13:00:00 20,6 12,2 0,0
17.07.2018 12:00:00 20,6 9,9 0,0
17.07.2018 11:00:00 21,0 10,3 0,0
17.07.2018 10:00:00 19,8 10,4 0,0
17.07.2018 09:00:00 18,6 11,4 0,0
17.07.2018 08:00:00 16,1 10,9 0,0
17.07.2018 07:00:00 14,3 10,7 0,0
17.07.2018 06:00:00 13,2 10,5 0,0
17.07.2018 05:00:00 13,6 10,5 0,0
17.07.2018 04:00:00 14,4 9,8 0,0
17.07.2018 03:00:00 15,6 10,2 0,0
17.07.2018 02:00:00 16,7 13,1 0,0
17.07.2018 01:00:00 16,8 14,0 0,0
17.07.2018 00:00:00 17,2 14,2 0,0
16.07.2018 23:00:00 17,6 14,2 0,0
16.07.2018 22:00:00 18,9 12,7 0,0
16.07.2018 21:00:00 20,8 11,2 0,0
16.07.2018 20:00:00 22,8 10,6 0,0
16.07.2018 19:00:00 23,9 11,2 0,0
16.07.2018 18:00:00 25,4 8,8 0,0
16.07.2018 17:00:00 25,3 9,9 0,0
16.07.2018 16:00:00 28,0 12,2 0,0
16.07.2018 15:00:00 27,6 12,0 0,0
16.07.2018 14:00:00 28,4 13,0 0,0
16.07.2018 13:00:00 27,8 9,1 0,0
16.07.2018 12:00:00 26,1 11,6 0,0
16.07.2018 11:00:00 26,5 11,9 0,0
16.07.2018 10:00:00 24,3 11,7 0,0
16.07.2018 09:00:00 22,3 12,2 0,0
16.07.2018 08:00:00 18,2 14,4 0,0
16.07.2018 07:00:00 13,9 13,9 0,0
16.07.2018 06:00:00 11,1 10,8 0,0
16.07.2018 05:00:00 11,2 10,7 0,0
16.07.2018 04:00:00 12,0 11,4 0,0
16.07.2018 03:00:00 12,7 11,9 0,0
16.07.2018 02:00:00 13,4 12,3 0,0
16.07.2018 01:00:00 14,0 11,6 0,0
16.07.2018 00:00:00 15,9 12,2 0,0
15.07.2018 23:00:00 16,1 10,8 0,0
15.07.2018 22:00:00 17,7 10,9 0,0
15.07.2018 21:00:00 20,4 10,3 0,0
15.07.2018 20:00:00 23,4 9,2 0,0
15.07.2018 19:00:00 26,3 8,4 0,0
15.07.2018 18:00:00 27,8 7,7 0,0
15.07.2018 17:00:00 27,9 7,7 0,0
15.07.2018 16:00:00 28,2 10,0 0,0
15.07.2018 15:00:00 28,4 11,1 0,0
15.07.2018 14:00:00 28,0 10,2 0,0
15.07.2018 13:00:00 28,1 10,6 0,0
15.07.2018 12:00:00 26,2 11,7 0,0
15.07.2018 11:00:00 25,5 12,4 0,0
15.07.2018 10:00:00 24,3 11,9 0,0
15.07.2018 09:00:00 21,5 13,7 0,0
15.07.2018 08:00:00 16,5 14,2 0,0
15.07.2018 07:00:00 12,8 12,7 0,0
15.07.2018 06:00:00 9,7 9,6 0,0
15.07.2018 05:00:00 9,2 8,9 0,0
15.07.2018 04:00:00 9,8 9,5 0,0
15.07.2018 03:00:00 10,6 10,2 0,0
15.07.2018 02:00:00 11,7 11,3 0,0
15.07.2018 01:00:00 12,1 11,5 0,0
15.07.2018 00:00:00 12,9 11,9 0,0
14.07.2018 23:00:00 14,6 12,6 0,0
14.07.2018 22:00:00 17,0 13,4 0,0
14.07.2018 21:00:00 18,8 13,0 0,0
14.07.2018 20:00:00 22,1 12,7 0,0
14.07.2018 19:00:00 24,9 13,0 0,0
14.07.2018 18:00:00 24,9 13,0 0,0
14.07.2018 17:00:00 26,2 14,4 0,0
14.07.2018 16:00:00 25,2 12,0 0,0
14.07.2018 15:00:00 26,4 13,0 0,0
14.07.2018 14:00:00 23,9 13,1 0,0
14.07.2018 13:00:00 24,0 13,4 0,0
14.07.2018 12:00:00 23,3 14,1 0,0
14.07.2018 11:00:00 22,6 13,7 0,0
14.07.2018 10:00:00 20,2 13,4 0,0
14.07.2018 09:00:00 17,3 13,5 0,0
14.07.2018 08:00:00 14,8 14,3 0,0
14.07.2018 07:00:00 12,7 12,6 0,0
14.07.2018 06:00:00 9,7 9,5 0,0
14.07.2018 05:00:00 9,6 9,3 0,0
14.07.2018 04:00:00 9,9 9,7 0,0
14.07.2018 03:00:00 10,2 9,9 0,0
14.07.2018 02:00:00 10,6 10,1 0,0
14.07.2018 01:00:00 11,4 10,9 0,0
14.07.2018 00:00:00 12,2 11,4 0,0
13.07.2018 23:00:00 13,3 11,9 0,0
13.07.2018 22:00:00 15,0 11,9 0,0
13.07.2018 21:00:00 17,6 13,2 0,0
13.07.2018 20:00:00 19,1 14,2 0,0
13.07.2018 19:00:00 19,7 13,8 0,0
13.07.2018 18:00:00 21,9 13,9 0,0
13.07.2018 17:00:00 23,7 14,2 0,0
13.07.2018 16:00:00 23,9 14,9 0,0
13.07.2018 15:00:00 24,0 12,8 0,0
13.07.2018 14:00:00 23,1 13,8 0,0
13.07.2018 13:00:00 21,5 13,7 0,0
13.07.2018 12:00:00 20,5 13,3 0,0

tt = temperature
td = dewpoint
rr = precipitation

Next stations